Flag for U.S.A. Weather past 2 weeks in Elizabeth, New Jersey, U.S.A.

Now
80 °F

Partly cloudy.


Feels Like: 82 °F
Forecast: 69 / 81 °F
Wind: 5 mph from South

Location: Newark International Airport

Current Time: Aug 27, 2014 at 11:16:17 PM

Latest Report: Aug 27, 2014 at 10:51 PM


Visibility: 10 mi

Pressure: 29.86 "Hg

Humidity: 64%

Dew point: 67 °F

Location of ElizabethLocation

Historic Weather in Elizabeth — Graph

°F

Elizabeth temperature yesterday

Maximum temperature yesterday: 86 °F (at 12:51 PM)
Minimum temperature yesterday: 68 °F (at 3:51 AM)
Average temperature yesterday: 77 °F

Past Weeks' High & Low Weather Summary

 TemperatureHumidityPressure
High92 °F (Aug 27, 1:51 PM)97% (Aug 13, 8:51 AM)30.18 "Hg (Aug 13, 8:51 AM)
Low58 °F (Aug 16, 6:51 AM)34% (Aug 16, 1:51 PM)29.65 "Hg (Aug 13, 4:51 PM)
Average74 °F62%29.97 "Hg
* Reported Aug 12 9:51 PM — Aug 27 9:51 PM, Elizabeth, Weather by CustomWeather, © 2014

Note: Actual official high and low records may vary slightly from our data, if they occured in-between our weather recording intervals... More about our weather records

Advertising

Elizabeth weather history for previous 24 hours

 ConditionsComfort  
Time TempWeatherWind HumidityBarometerVisibility
9:51 PM
Aug 27
83 °FMostly cloudy.8 mph55%29.87 "Hg10 mi
8:51 PM85 °FPassing clouds.7 mph51%29.88 "Hg10 mi
7:51 PM84 °FScattered clouds.9 mph53%29.85 "Hg10 mi
6:51 PM89 °FScattered clouds.14 mph45%29.85 "Hg10 mi
5:51 PM91 °FScattered clouds.9 mph41%29.87 "Hg10 mi
4:51 PM91 °FScattered clouds.12 mph39%29.88 "Hg10 mi
3:51 PM91 °FScattered clouds.5 mph38%29.88 "Hg10 mi
2:51 PM92 °FPassing clouds.10 mph36%29.91 "Hg10 mi
1:51 PM92 °FPassing clouds.10 mph36%29.93 "Hg10 mi
12:51 PM89 °FPassing clouds.8 mph39%29.96 "Hg10 mi
11:51 AM88 °FScattered clouds.3 mph42%29.99 "Hg10 mi
10:51 AM84 °FScattered clouds.6 mph49%30.01 "Hg10 mi
9:51 AM80 °FPassing clouds.6 mph56%30.03 "Hg10 mi
8:51 AM76 °FPassing clouds.6 mph67%30.04 "Hg10 mi
7:51 AM72 °FPassing clouds.5 mph76%30.04 "Hg10 mi
6:51 AM67 °FPassing clouds.No wind87%30.03 "Hg10 mi
5:51 AM68 °FClear.No wind84%30.03 "Hg10 mi
4:51 AM69 °FClear.5 mph79%30.02 "Hg10 mi
3:51 AM69 °FClear.3 mph79%30.03 "Hg10 mi
2:51 AM69 °FClear.7 mph76%30.04 "Hg10 mi
1:51 AM70 °FPassing clouds.9 mph73%30.06 "Hg10 mi
12:51 AM71 °FPassing clouds.7 mph68%30.07 "Hg10 mi
11:51 PM
Aug 26
72 °FPassing clouds.3 mph71%30.09 "Hg10 mi
Weather by CustomWeather, © 2014

See weather overviewHow to use our weather pages